EW1782 Weather Reports


time (UTC)temp
C
wind
direction
speed
KPH
gust
KPH
rain 1hr
cm
rain 24hr
cm
rain mn
cm
humidity
%
barometer
mb
20260502163001 15 281 4.8 17.7 0.00 0.00 0.00 41 1013.0
20260502161549 15 302 8.0 19.3 0.00 0.00 0.00 42 1013.1
20260502151537 12 274 3.2 11.3 0.00 0.00 0.00 47 1014.0
20260502123043 6 269 0.0 4.8 0.00 0.00 0.00 58 1016.1
20260502121542 6 262 1.6 6.4 0.00 0.00 0.00 57 1016.1
20260502114521 5 246 0.0 4.8 0.00 0.00 0.00 59 1016.2
20260502113020 5 261 0.0 3.2 0.00 0.00 0.00 59 1016.4
20260502111506 5 142 0.0 8.0 0.00 0.00 0.00 59 1016.4
20260502110007 5 236 0.0 6.4 0.00 0.00 0.00 60 1016.6
20260502104504 5 274 0.0 4.8 0.00 0.00 0.00 60 1016.7
20260502103002 4 207 0.0 1.6 0.00 0.00 0.00 62 1016.8
20260502101606 4 10 0.0 1.6 0.00 0.00 0.00 61 1016.9
20260502070059 6 229 0.0 0.0 0.00 0.00 0.00 49 1017.9
20260502064557 6 229 0.0 1.6 0.00 0.00 0.00 48 1017.8
20260502063053 6 228 0.0 1.6 0.00 0.00 0.00 49 1017.9
20260502061551 6 252 0.0 1.6 0.00 0.00 0.00 49 1018.0
20260502060039 6 253 0.0 1.6 0.00 0.00 0.00 49 1018.1
20260502054539 6 253 0.0 1.6 0.00 0.00 0.00 49 1018.1
20260502053037 6 253 0.0 1.6 0.00 0.00 0.00 49 1018.1
20260502051537 6 244 0.0 1.6 0.00 0.00 0.00 51 1018.2
20260502050036 5 267 0.0 1.6 0.00 0.00 0.00 53 1018.2
20260502044534 5 267 0.0 0.0 0.00 0.00 0.00 53 1018.3
20260502043031 5 267 0.0 1.6 0.00 0.00 0.00 52 1018.4
20260502041534 6 267 0.0 0.0 0.00 0.00 0.00 51 1018.4
20260502040011 6 267 0.0 1.6 0.00 0.00 0.00 50 1018.5
20260502034510 6 269 0.0 1.6 0.00 0.00 0.00 50 1018.5
20260502033052 6 267 0.0 1.6 0.00 0.00 0.00 51 1018.6
20260502031551 6 267 0.0 1.6 0.00 0.00 0.00 51 1018.6
20260502030031 6 267 0.0 1.6 0.00 0.00 0.00 51 1018.5
20260502024529 6 268 0.0 1.6 0.00 0.00 0.00 50 1018.4
20260502023015 6 266 0.0 1.6 0.00 0.00 0.00 49 1018.3
20260502021515 7 266 0.0 1.6 0.00 0.00 0.00 49 1018.3
20260502020011 7 266 0.0 1.6 0.00 0.00 0.00 49 1018.3
20260502014527 7 311 0.0 1.6 0.00 0.00 0.00 47 1018.2
20260502013004 8 314 0.0 1.6 0.00 0.00 0.00 45 1018.2
20260502011501 8 312 0.0 3.2 0.00 0.00 0.00 43 1018.1
20260502004604 10 326 1.6 8.0 0.00 0.00 0.00 41 1017.9
20260502003044 10 291 3.2 9.7 0.00 0.00 0.00 41 1017.8
20260502001644 10 340 3.2 6.4 0.00 0.00 0.00 41 1017.8
20260502000053 10 312 1.6 8.0 0.00 0.00 0.00 40 1017.8
20260501234543 10 315 4.8 9.7 0.00 0.00 0.00 40 1017.8
20260501233041 11 305 4.8 8.0 0.00 0.00 0.00 39 1017.8
20260501231547 11 309 3.2 9.7 0.00 0.00 0.00 39 1017.7
20260501230042 11 322 3.2 9.7 0.00 0.00 0.00 38 1017.8
20260501224539 11 236 4.8 12.9 0.00 0.00 0.00 38 1017.9
20260501223026 11 291 4.8 11.3 0.00 0.00 0.00 37 1017.8
20260501221529 11 186 1.6 11.3 0.00 0.00 0.00 37 1017.9
20260501220025 11 320 8.0 14.5 0.00 0.00 0.00 38 1018.0
20260501214533 11 329 3.2 12.9 0.00 0.00 0.00 38 1018.2
20260501213021 11 335 3.2 9.7 0.00 0.00 0.00 38 1018.2
20260501211520 11 315 4.8 12.9 0.00 0.00 0.00 37 1018.3
20260501210023 11 304 4.8 12.9 0.00 0.00 0.00 39 1018.3
20260501204516 10 31 3.2 17.7 0.00 0.00 0.00 40 1018.5
20260501203003 10 29 4.8 11.3 0.00 0.00 0.00 40 1018.6
20260501201501 10 333 6.4 11.3 0.00 0.00 0.00 38 1018.8
20260501200001 10 41 6.4 12.9 0.00 0.00 0.00 38 1018.7
20260501194559 10 341 3.2 12.9 0.00 0.00 0.00 40 1018.8
20260501193101 10 328 8.0 14.5 0.00 0.00 0.00 40 1018.9
20260501191556 10 322 6.4 16.1 0.00 0.00 0.00 40 1019.0
20260501190053 10 52 3.2 17.7 0.00 0.00 0.00 40 1018.9
20260501184553 9 308 4.8 12.9 0.00 0.00 0.00 39 1018.9
20260501183047 8 322 4.8 14.5 0.00 0.00 0.00 40 1019.1
20260501181542 9 17 3.2 11.3 0.00 0.00 0.00 40 1019.1
20260501180042 9 5 3.2 11.3 0.00 0.00 0.00 40 1019.2